Mogincual, Mozambique
Current Conditions -  °F | °C
As of 7:00 PM on Monday 22 Dec 2014 (Local Time) from FQNP Reporting Station
Scattered Clouds Scattered Clouds  
Wind Chill: 93°   Ceiling: Unl
Heat Index: 101°   Visibility: 6mi
Dew Point: 72°   Wind: 12mph
Humidity: 49%   Direction: 90°E
Pressure: 29.8"   Gusts: NA
Location:  15.57°S, 40.4°E
Report Text: FQNP 221700Z 09010KT 9999 SCT020 34/22 Q1009
Loading
Personal Weather Stations






























Interactive Weather Map New forecast layout! Learn more

10-Day Weather Forecast

Advertisements
Track Severe Weather on mobile